Meteo Giornale » Osservazioni meteo Olanda » Amsterdam Schiphol

ore: 16:55 - Osservazioni Meteo Amsterdam Schiphol
Lat. 52° 18' N Lon. 4° 46' E Alt. -4 metri s.l.m.

nuvoloso Europe/Amsterdam

2 °C

Nuvoloso

Temp. 24 Ore

-6 °C

4 °C

Nord

1.8 Km/h

Dew point 0 °C

Umidità 86 %

Visibilità  5 Km

Il sole sorge alle ore 08:32

Il sole tramonta alle ore 17:12

Data e Ora Cielo e Fenomeni T °C DP °C Um. % Pres. hPa Vis. km Vento km/h
Oggi h: 16:55 nuvoloso Nuvoloso 2 0 86 1026 5 N 1.8
Oggi h: 16:25 nuvoloso Nuvoloso 2 -0 86 1026 6 N 5.5
Oggi h: 15:55 poco_nuvoloso Poco Nuvoloso 2 -0 86 1026 8 O 11.1
Oggi h: 15:25 sereno Sereno 3 -0 80 1026 9 O 9.3
Oggi h: 14:55 sereno Sereno 3 -0 80 1026 9 O 9.3
Oggi h: 14:25 sereno Sereno 4 -0 75 1026 9 O 7.4
Oggi h: 13:55 sereno Sereno 3 -1 74 1027 10 N 5.5
Oggi h: 13:25 sereno Sereno 3 -1 74 1027 9 SO 7.4
Oggi h: 12:55 sereno Sereno 2 -1 80 1027 10 N 5.5
Oggi h: 12:25 sereno Sereno 1 -2 80 1027 9 N 3.7
Oggi h: 11:55 sereno Sereno 0 -2 86 1027 9 N 3.7
Oggi h: 11:25 sereno Sereno -1 -3 86 1027 10 N 3.7
Oggi h: 10:55 sereno Sereno -2 -3 92 1028 10 N 3.7
Oggi h: 10:25 sereno Sereno -3 -3 100 1028 10 N 1.8
Oggi h: 09:55 sereno Sereno -4 -5 92 1027 10 N 5.5
Oggi h: 09:25 sereno Sereno -6 -6 100 1027 9 N 5.5
Oggi h: 08:55 sereno Sereno -6 -7 92 1027 7 N 3.7
Oggi h: 08:25 sereno Sereno -6 -6 100 1027 7 N 5.5
Oggi h: 07:55 sereno Sereno -6 -6 100 1026 7 N 5.5
Oggi h: 07:25 nebbia Nebbia a Strati -6 -7 92 1027 8 N 5.5
Oggi h: 06:55 nebbia Nebbia a Strati -6 -6 100 1027 8 N 5.5
Oggi h: 06:25 nebbia Nebbia a Strati -4 -5 92 1027 8 N 3.7
Oggi h: 05:55 nebbia Nebbia a Strati -5 -6 92 1027 7 N 1.8
Oggi h: 05:25 nebbia Nebbia a Strati -4 -4 100 1027 7 N 5.5
Oggi h: 04:55 nebbia Nebbia a Strati -5 -5 100 1027 7 N 5.5
Oggi h: 04:25 nebbia Nebbia a Strati -5 -5 100 1027 7 N 5.5
Oggi h: 03:55 nebbia Nebbia a Strati -3 -4 92 1027 7 N 3.7
Oggi h: 03:25 nebbia Nebbia a Strati -4 -4 100 1027 7 N 1.8
Oggi h: 02:55 nebbia Nebbia a Strati -3 -4 92 1027 8 N 3.7
Oggi h: 02:25 nebbia Nebbia a Strati -3 -4 92 1027 9 N 1.8
Oggi h: 01:55 sereno Sereno -3 -3 100 1027 10 N 5.5
Oggi h: 01:25 sereno Sereno -3 -4 92 1027 10 E 7.4
Oggi h: 00:55 sereno Sereno -4 -4 100 1027 10 E/SE 7.4
Oggi h: 00:25 sereno Sereno -4 -5 92 1027 10 E 7.4
Ieri h: 23:55 sereno Sereno -4 -5 92 1027 10 E 9.3
Ieri h: 23:25 sereno Sereno -2 -3 92 1028 10 E 7.4
Ieri h: 22:55 sereno Sereno -2 -3 92 1028 10 N 5.5
Ieri h: 22:25 sereno Sereno -3 -4 92 1028 10 N 5.5
Ieri h: 21:55 sereno Sereno -2 -3 92 1028 10 E 9.3
Ieri h: 21:25 sereno Sereno -1 -3 86 1028 10 E/SE 9.3
Ieri h: 20:55 sereno Sereno -1 -3 86 1028 10 E/SE 9.3
Ieri h: 20:25 sereno Sereno -1 -2 92 1028 10 E 7.4
Ieri h: 19:55 sereno Sereno -1 -2 92 1028 10 E 9.3
Ieri h: 19:25 sereno Sereno -1 -2 92 1028 10 E 9.3
Ieri h: 18:55 sereno Sereno 1 -1 86 1028 10 E 7.4
Ieri h: 18:25 sereno Sereno 1 -1 86 1028 10 E 9.3
Ieri h: 17:55 sereno Sereno 1 -1 86 1028 10 E 11.1
Ieri h: 17:25 sereno Sereno 2 -1 80 1028 10 E 11.1
Ieri h: 16:55 sereno Sereno 2 -1 80 1028 10 E/NE 13